Location: *
(38.4303°S, 157.0822°W)
Time: 15:31:28
(UTC+00:00)

Cosmos 2298 Rocket - Pass Details

Date: 21 May 2024
Orbit: 774 x 783 km, 74.0° (Epoch: 22 June)

Event Time Altitude Azimuth Distance (km) Brightness Sun altitude
Rises 16:40:35 0° 198° (SSW) 3,288 6.9 -9.6°
Reaches altitude 10° 16:43:00 10° 196° (SSW) 2,353 6.2 -9.1°
Maximum altitude 16:48:21 79° 109° (ESE) 803 4.2 -8.2°
Drops below altitude 10° 16:53:39 10° 22° (NNE) 2,324 7.2 -7.2°
Sets 16:56:01 0° 20° (NNE) 3,244 7.9 -6.7°
